Погода Чимбай

Погода Чимбай : погода сейчас, прогноз погоды и архив. Всё, что Вы хотите узнать о погоде Чимбай!

Хотите узнать прогноз погоды Чимбай? Тогда Вам сюда: Погода Чимбай

Поиск расширенной информации на нашем сайте:

Полезная информация: Классификация и виды складского немеханического оборудования.

Другие новости

Новости СМИ2

Главная страница сайта

Новости сайта

02.10.2013

Напоминаем, что на нашем новом сайте вы можете получить высокодетализированные прогнозы погоды по пунктам России, СНГ и мира (включающие важные для авиации метеовеличины, такие как направление и скорость ветра, видимость, явления погоды, количество и форма облачности, нижняя и верхняя граница облачности), а также ознакомиться с разнообразными материалами по авиационной метеорологии и подборкой полезных ссылок на эту тему.

Сайт Метеоцентр.Азия посвящён разработке технологий оптимизации авиаметеорологического обслуживания, включая проектирование и перспективное создание нескольких автоматизированных авиаметеорологических систем:
- система выпуска высокодетальных прогностических карт явлений погоды для нижнего воздушного пространства по России и ближнему зарубежью;
- система верификации прогнозов TAF (выпускаемых синоптиками официальных АМСГ РФ и ближнего зарубежья) и AUTOTAF (выпускаемых сайтом Метеоцентр.Азия) - выявление ошибок, онлайн-сопоставление с фактической погодой METAR, автоматическое внесение коррективов в прогнозы при резком отклонении фактической погоды от прогноза, подсчёт оправдываемости прогнозов по элементам и в целом;
- система обработки, анализа и отображения авиаметеорологической информации для применения провайдерами метеорологической информации.

Рекомендуем: Заказать производство новогодней продукции купить искусственные новогодние.

Погода Чимбай - сегодня

Время (UTC), дата Ветер
(°,м/с) 
Видим.   Явления Облачность Т
(°С)
Тd
(°С)
f(%) Тe
(°С)
Pmin
(гПа)
dP
(гПа)
Po
(мм)
O2
(г/м3)
Тmin Tmax R s Состояние
почвы
15 24.04.17 120 (ЮВ) 20000 м    9/0 средняя, верхняя 
[Ac trans|Ci sp]
+26.5 +6.2 27 +27  1008.7  -0.8  751  275    +32.9       
18 24.04.17 140 (ЮВ) н/о    ясно 
+21.2 +5.6 36 +21  1010.9  752  280    +32.9       
21 24.04.17 140 (ЮВ) н/о    ясно 
+19.2 +5 39 +20  1010.4  -0.5  752  282           
00 25.04.17 290 (З) н/о    5/0 средняя, верхняя 
[Ac trans|Ci sp]
+17.9 +8.4 54 +19  1010.4  752  283           
03 25.04.17 300 (СЗ) 20000 м    9/6 1000 м средняя 
[Sc|Ac trans]
+15.8 +10.3 70 +17  1013.1  2.6  754  285           
06 25.04.17 290 (З) 20000 м    9/0 средняя, верхняя 
[Ac trans|Ci sp]
+17.4 +8.5 56 +18  1015  1.8  755  285  +15.6         
09 25.04.17 300 (СЗ) 20000 м    10/10 1000 м 
[Sc]
+22.4 +8.8 42 +22  1015.3  0.4  756  280           
12 25.04.17 320 (СЗ) 20000 м    10/10 1000 м 
[Sc]
+22 +5.9 35 +22  1015.8  0.5  756  281           
15 25.04.17 360 (С) 20000 м    9/6 1000 м средняя 
[Sc|Ac trans]
+17.3 +5 44 +18  1016.8  757  286    +23       
18 25.04.17 320 (СЗ) н/о    8/8 1000 м 
[Sc]
+15.9 +7.3 57 +17  1017.9  758  287    +23       
21 25.04.17 320 (СЗ) н/о    8/0 средняя 
[Ac trans]
+16.1 +5.5 49 +16  1018.8  0.9  758  288           
00 26.04.17 340 (С) н/о    8/0 средняя 
[Ac trans]
+14.7 +3.8 48 +14  1019.5  0.7  759  290           
03 26.04.17 320 (СЗ) 10 км  слаб. ливневой дождь  10/10 600 м кучево-дожд. 
[Cb cap]
+12 +4.5 60 +11  1022.6  3.1  761  293      0.0     
06 26.04.17 330 (СЗ) 10 км  слаб. дождь{ливн. осадки}  10/10 600 м 
[Sc]
+12.6 +4 56 +12  1025.8  3.1  763  293  +11.5    0.0     
09 26.04.17 330 (СЗ) 20000 м  {дождь}  10/10 1000 м 
[Sc]
+15.5 +2.7 42 +15  1027.9  2.1  765  291           
12 26.04.17 320 (СЗ) 20000 м    9/9 1000 м 
[Sc]
+16.6 +0.9 35 +17  1028.8  0.9  766  291           
18 26.04.17 320 (СЗ) н/о    ясно 
+11.6 -1.7 40 +12  1029.3  0.2  766  296    +17.2  0.0     
21 26.04.17 310 (СЗ) н/о    ясно 
+8.7 -2.1 47 +9  1031.2  767  300           
00 27.04.17 320 (СЗ) н/о    ясно 
+6.9 -1.7 54 +6  1031.5  0.3  768  302           
03 27.04.17 330 (СЗ) 20000 м    ясно 
+8.8 -1.4 49 +8  1032.4  0.9  768  300           
06 27.04.17 330 (СЗ) 20000 м    ясно 
+13.2 -0.7 38 +13  1033.1  0.8  769  296  +5.9         
09 27.04.17 340 (С) 20000 м    3/3 1000 м 
[Cu hum]
+16 -2.2 29 +16  1033.3  0.2  769  293           
12 27.04.17 050 (СВ) 20000 м    3/3 1000 м 
[Cu hum]
+16.8 -0.7 30 +17  1032.6  -0.7  768  292           
15 27.04.17 020 (С) 20000 м    ясно 
+14.3 -0.9 35 +15  1033.6  0.9  769  295    +17.5       
18 27.04.17 300 (СЗ) н/о    ясно 
+8.7 +1.5 61 +10  1034.9  1.2  770  301    +17.5       
Время (UTC), дата Ветер
(°,м/с) 
Видим.   Явления Облачность Т
(°С)
Тd
(°С)
f(%) Тe
(°С)
Pmin
(гПа)
dP
(гПа)
Po
(мм)
O2
(г/м3)
Тmin Tmax R s Состояние
почвы

Для получения пояснительной информации подведите курсор к названию столбца.

ПОГОДА Чимбай - архив

Всё, что Вы хотите узнать о погоде Чимбай - удобно и подробно!

Выберите нужную дату (начиная с 1 января 2015* года) и нажмите кнопку "Найти".
Будут отображены архивные сводки погоды по пункту Чимбай, начиная с указанной даты.


Отображать данные в формате CSV (для использования в таблицах Excel)


Внимание! Наш архив погоды предназначен исключительно для личного некоммерческого использования в познавательных целях. Если Вам необходимы официальные справки о состоянии погоды (для производственных, юридических, коммерческих и т.п. целей), обращайтесь в органы Росгидромета.

*Примечание: данная дата относится к архиву по метеостанциям СССР (Россия, СНГ, Балтия).
Архив по метеостанциям Зарубежной Европы и Азии (кроме Китая) хранится 10 дней, по другим регионам земного шара (Китай, Африка, Америка, Австралия, Океания) - 1 день.

Чимбай - район местоположения метеостанции


Название, широта, долгота, высота метеостанции:
Чимбай 42.9°ш. 59.8°д. 66 м над ур. моря [Узбекистан]

Дополнительная информация

В oтличие oт бoльшинства пoгoдных сайтoв мы публикуем пoдрoбную метеoинфoрмацию в детальнoм прoфессиoнальнoм фoрмате.

Характеристики температуры и влажнoсти вoздуха измеряются на высoте 2 м в тени вдали oт зданий и деревьев.
Скoрoсть ветра измеряется на высoте 10 м (на урoвне рoста челoвека скoрoсть ветра ниже в 1.5-2 раза). Если метеoстанция нахoдится в гoрoде или в лесу, тo скoрoсть ветра занижена на 2-4 м/с пo сравнению с oткрытым местoм. Скoрoсть ветра над акватoриями крупных рек и oзёр, а также на вершинах хoлмoв на 2-5 м/с выше, чем в oбычных услoвиях.
Атмoсфернoе давление в разных тoчках местнoсти мoжет значительнo oтличаться oт давления на метеoстанции, в зависимoсти oт услoвий рельефа (при пoдъёме на 10 м давление пoнижается примернo на 1 мм рт.ст.).